• In Belarus
  • List of Countries
  • For 7 days
  • Water Temperature
  • Weather Map
  • Weather Widgets
  • user-avatar
    Login

    Hourly Weather Lankaran

    Today, 8 April, Wednesday

    Time Temperature Precipitation Wind Pressure Humidity
    00:00 -7°C° 1.2 mm 2 mps 637 mmHg 97%
    01:00 -7°C° 1.5 mm 2 mps 637 mmHg 97%
    02:00 -7°C° 1.5 mm 2 mps 637 mmHg 97%
    03:00 -7°C° 1.5 mm 2 mps 637 mmHg 97%
    04:00 -7°C° 1.5 mm 2 mps 638 mmHg 97%
    05:00 -7°C° 1.5 mm 2 mps 638 mmHg 97%
    06:00 -7°C° 1.5 mm 2 mps 639 mmHg 97%
    07:00 -7°C° 1.4 mm 3 mps 639 mmHg 96%
    08:00 -7°C° 1.4 mm 3 mps 639 mmHg 96%
    09:00 -7°C° 1.4 mm 4 mps 640 mmHg 95%
    10:00 -7°C° 1 mm 4 mps 639 mmHg 96%
    11:00 -6°C° 1 mm 3 mps 639 mmHg 96%
    12:00 -6°C° 1 mm 3 mps 639 mmHg 96%
    13:00 -6°C° 0.3 mm 3 mps 639 mmHg 95%
    14:00 -6°C° 0.3 mm 3 mps 638 mmHg 94%
    15:00 -6°C° 0.3 mm 3 mps 638 mmHg 93%
    16:00 -5°C° 0.1 mm 2 mps 637 mmHg 94%
    17:00 -6°C° 0.1 mm 2 mps 637 mmHg 95%
    18:00 -6°C° 0.1 mm 1 mps 636 mmHg 96%
    19:00 -6°C° 0 mm 1 mps 636 mmHg 94%
    20:00 -7°C° 0 mm 1 mps 636 mmHg 92%
    21:00 -7°C° 0 mm 1 mps 636 mmHg 91%
    22:00 -7°C° 0 mm 1 mps 635 mmHg 89%
    23:00 -7°C° 0 mm 1 mps 635 mmHg 87%

    Tomorrow, 9 April, Thursday

    Time Temperature Precipitation Wind Pressure Humidity
    00:00 -7°C° 0 mm 1 mps 634 mmHg 86%
    01:00 -7°C° 0 mm 1 mps 634 mmHg 85%
    02:00 -7°C° 0 mm 1 mps 633 mmHg 85%
    03:00 -7°C° 0 mm 1 mps 632 mmHg 84%
    04:00 -7°C° 0 mm 1 mps 632 mmHg 86%
    05:00 -6°C° 0 mm 1 mps 632 mmHg 88%
    06:00 -6°C° 0 mm 1 mps 632 mmHg 90%
    07:00 -3°C° 0 mm 1 mps 633 mmHg 91%
    08:00 -2°C° 0 mm 1 mps 633 mmHg 93%
    09:00 -1°C° 0 mm 1 mps 633 mmHg 95%
    10:00 0°C° 0 mm 1 mps 633 mmHg 95%
    11:00 0°C° 0 mm 1 mps 632 mmHg 95%
    12:00 -2°C° 0 mm 2 mps 632 mmHg 96%
    13:00 0°C° 0 mm 1 mps 631 mmHg 96%
    14:00 +1°C° 0 mm 1 mps 630 mmHg 96%
    15:00 +1°C° 0 mm 1 mps 630 mmHg 97%
    16:00 +1°C° 0 mm 1 mps 630 mmHg 97%
    17:00 +1°C° 0 mm 1 mps 630 mmHg 97%
    18:00 +1°C° 0 mm 1 mps 630 mmHg 98%
    19:00 +1°C° 0 mm 1 mps 630 mmHg 98%
    20:00 +1°C° 0 mm 1 mps 630 mmHg 98%
    21:00 0°C° 0 mm 0 mps 630 mmHg 98%
    22:00 -1°C° 0 mm 0 mps 630 mmHg 97%
    23:00 0°C° 0 mm 1 mps 630 mmHg 97%

    Day after tomorrow, 10 April, Friday

    Time Temperature Precipitation Wind Pressure Humidity
    00:00 0°C° 0 mm 1 mps 629 mmHg 96%
    01:00 0°C° 0 mm 1 mps 629 mmHg 96%
    02:00 0°C° 0 mm 1 mps 629 mmHg 96%
    03:00 +1°C° 0 mm 1 mps 628 mmHg 97%
    04:00 +1°C° 0 mm 1 mps 629 mmHg 97%
    05:00 +1°C° 0 mm 1 mps 629 mmHg 97%
    06:00 +1°C° 0 mm 1 mps 629 mmHg 97%
    07:00 +1°C° 0 mm 1 mps 629 mmHg 97%
    08:00 +1°C° 0 mm 1 mps 629 mmHg 96%
    09:00 +2°C° 0 mm 1 mps 629 mmHg 95%
    10:00 +2°C° 0 mm 1 mps 629 mmHg 95%
    11:00 +2°C° 0 mm 1 mps 628 mmHg 95%
    12:00 +2°C° 0 mm 1 mps 628 mmHg 94%
    13:00 +3°C° 0 mm 1 mps 628 mmHg 94%
    14:00 +3°C° 0 mm 1 mps 627 mmHg 94%
    15:00 +2°C° 0 mm 2 mps 627 mmHg 94%
    16:00 +3°C° 0 mm 1 mps 627 mmHg 95%
    17:00 +2°C° 0 mm 1 mps 627 mmHg 96%
    18:00 +2°C° 0 mm 1 mps 627 mmHg 97%
    19:00 +1°C° 0 mm 1 mps 627 mmHg 96%
    20:00 +1°C° 0 mm 1 mps 627 mmHg 96%
    21:00 0°C° 0 mm 0 mps 627 mmHg 95%
    22:00 0°C° 0 mm 0 mps 627 mmHg 93%
    23:00 0°C° 0 mm 0 mps 627 mmHg 92%

    11 April, Saturday

    Time Temperature Precipitation Wind Pressure Humidity
    00:00 -1°C° 0 mm 0 mps 626 mmHg 90%
    01:00 -1°C° 0 mm 0 mps 626 mmHg 90%
    02:00 -1°C° 0 mm 0 mps 626 mmHg 89%
    03:00 -1°C° 0 mm 0 mps 626 mmHg 89%
    04:00 -1°C° 0 mm 0 mps 626 mmHg 88%
    05:00 0°C° 0 mm 0 mps 626 mmHg 87%
    06:00 0°C° 0 mm 0 mps 627 mmHg 86%
    07:00 +1°C° 0 mm 0 mps 627 mmHg 87%
    08:00 +3°C° 0 mm 1 mps 627 mmHg 88%
    09:00 +4°C° 0 mm 1 mps 628 mmHg 89%
    10:00 +4°C° 0.1 mm 1 mps 628 mmHg 89%
    11:00 +5°C° 0.1 mm 1 mps 627 mmHg 89%
    12:00 +4°C° 0.1 mm 2 mps 627 mmHg 88%
    13:00 +4°C° 0.1 mm 2 mps 627 mmHg 89%
    14:00 +4°C° 0.1 mm 2 mps 627 mmHg 90%
    15:00 +4°C° 0.1 mm 2 mps 627 mmHg 91%
    16:00 +3°C° 0.1 mm 2 mps 627 mmHg 92%
    17:00 +2°C° 0.1 mm 2 mps 627 mmHg 94%
    18:00 +3°C° 0.1 mm 1 mps 627 mmHg 95%
    19:00 +3°C° 0.1 mm 1 mps 627 mmHg 94%
    20:00 +3°C° 0.1 mm 1 mps 628 mmHg 93%
    21:00 +3°C° 0.1 mm 1 mps 628 mmHg 91%
    22:00 +2°C° 0 mm 1 mps 628 mmHg 91%
    23:00 +2°C° 0 mm 1 mps 629 mmHg 91%

    12 April, Sunday

    Time Temperature Precipitation Wind Pressure Humidity
    00:00 +2°C° 0 mm 1 mps 629 mmHg 90%
    01:00 +2°C° 0 mm 1 mps 629 mmHg 90%
    02:00 +2°C° 0 mm 1 mps 629 mmHg 90%
    03:00 +2°C° 0 mm 1 mps 629 mmHg 90%
    04:00 +1°C° 0 mm 2 mps 630 mmHg 91%
    05:00 +1°C° 0 mm 2 mps 630 mmHg 91%
    06:00 +1°C° 0 mm 2 mps 630 mmHg 91%
    07:00 +1°C° 0.1 mm 2 mps 631 mmHg 92%
    08:00 +1°C° 0.1 mm 2 mps 631 mmHg 92%
    09:00 +1°C° 0.1 mm 2 mps 632 mmHg 92%
    10:00 +1°C° 0.3 mm 2 mps 632 mmHg 92%
    11:00 +1°C° 0.3 mm 2 mps 632 mmHg 92%
    12:00 +1°C° 0.3 mm 2 mps 632 mmHg 93%
    13:00 +1°C° 0.1 mm 2 mps 632 mmHg 93%
    14:00 +1°C° 0.2 mm 2 mps 632 mmHg 94%
    15:00 +1°C° 0.2 mm 2 mps 632 mmHg 95%
    16:00 -1°C° 0.1 mm 2 mps 632 mmHg 95%
    17:00 -1°C° 0.1 mm 2 mps 632 mmHg 95%
    18:00 +1°C° 0.1 mm 1 mps 632 mmHg 95%
    19:00 +1°C° 0 mm 1 mps 633 mmHg 95%
    20:00 +1°C° 0 mm 1 mps 633 mmHg 94%
    21:00 +1°C° 0 mm 1 mps 634 mmHg 94%
    22:00 +1°C° 0 mm 1 mps 634 mmHg 94%
    23:00 +1°C° 0 mm 1 mps 634 mmHg 95%

    13 April, Monday

    Time Temperature Precipitation Wind Pressure Humidity
    00:00 +1°C° 0 mm 1 mps 634 mmHg 95%
    01:00 0°C° 0 mm 1 mps 634 mmHg 94%
    02:00 0°C° 0 mm 1 mps 634 mmHg 94%
    03:00 0°C° 0 mm 1 mps 634 mmHg 93%
    04:00 0°C° 0 mm 1 mps 634 mmHg 94%
    05:00 0°C° 0 mm 1 mps 634 mmHg 94%
    06:00 0°C° 0 mm 1 mps 635 mmHg 94%
    07:00 +1°C° 0 mm 1 mps 635 mmHg 93%
    08:00 +2°C° 0 mm 1 mps 635 mmHg 92%
    09:00 +2°C° 0 mm 1 mps 636 mmHg 90%
    10:00 +1°C° 0 mm 2 mps 635 mmHg 90%
    11:00 +2°C° 0 mm 2 mps 635 mmHg 89%
    12:00 +2°C° 0 mm 2 mps 635 mmHg 88%
    13:00 +2°C° 0 mm 2 mps 635 mmHg 88%
    14:00 +3°C° 0 mm 2 mps 635 mmHg 88%
    15:00 +3°C° 0 mm 2 mps 634 mmHg 88%
    16:00 +2°C° 0 mm 2 mps 634 mmHg 90%
    17:00 +3°C° 0 mm 1 mps 634 mmHg 92%
    18:00 +2°C° 0 mm 1 mps 634 mmHg 94%
    19:00 +2°C° 0 mm 1 mps 634 mmHg 94%
    20:00 +2°C° 0 mm 1 mps 635 mmHg 94%
    21:00 +2°C° 0 mm 1 mps 635 mmHg 94%
    22:00 +2°C° 0 mm 1 mps 635 mmHg 92%
    23:00 0°C° 0 mm 0 mps 635 mmHg 91%
    Show more